Weather History for KPRC - November, 2014

Change the Weather History Date:

Sunday, November 16, 2014

  Actual Average Record
Temperature  
Mean Temperature 42 °F 46 °F  
Max Temperature 51 °F 60 °F 76 °F (1999)
Min Temperature 33 °F 31 °F 9 °F (1964)
Degree Days  
Heating Degree Days 23    
Month to date heating degree days  
Since 1 July heating degree days 372  
Cooling Degree Days 0    
Month to date cooling degree days  
Year to date cooling degree days 1039  
Moisture  
Dew Point 8 °F    
Average Humidity 33    
Maximum Humidity 71    
Minimum Humidity 8    
Precipitation  
Precipitation 0.00 in 0.03 in 0.41 in (1969)
Month to date precipitation 0.02 0.46  
Year to date precipitation 10.22 12.55  
Sea Level Pressure  
Sea Level Pressure 30.06 in    
Wind  
Wind Speed 11 mph (NNW)    
Max Wind Speed 24 mph    
Max Gust Speed 31 mph    
Visibility 10 miles    
Events      
T = Trace of Precipitation, MM = Missing Value Source: NWS Daily Summary

Daily Weather History Graph

Daily Weather History Graph

Search for Another Location

Airport or City:

Trip Planner

Search our weather history database for the weather conditions in past years. The results will help you decide how hot, cold, wet, or windy it might be!

Date:

Astronomy

Nov. 16, 2014 Rise Set
Actual Time 7:04 AM MST 5:24 PM MST
Civil Twilight 6:37 AM MST 5:50 PM MST
Nautical Twilight 6:07 AM MST 6:21 PM MST
Astronomical Twilight 5:37 AM MST 6:51 PM MST
Moon 1:28 AM MST (11/16) 2:06 PM MST (11/16)
Length of Visible Light 11h 13m
Length of Day
10h 19m
Waning Crescent, 30% of the Moon is Illuminated
Nov 16
Waning Crescent
Nov 22
New
Nov 29
First Quarter
Dec 6
Full
Dec 14
Last Quarter

Hourly Weather History & Observations

Time (MST) Temp. Windchill Dew Point Humidity Pressure Visibility Wind Dir Wind Speed Gust Speed Precip Events Conditions
12:53 AM 48.9 °F - 37.9 °F 66% 29.80 in 10.0 mi WSW 4.6 mph - N/A   Clear
1:53 AM 46.0 °F 43.9 °F 37.0 °F 71% 29.83 in 10.0 mi West 4.6 mph - N/A   Scattered Clouds
2:53 AM 48.0 °F - 34.0 °F 58% 29.82 in 10.0 mi WNW 10.4 mph - N/A   Scattered Clouds
3:42 AM 43.0 °F 36.0 °F 34.0 °F 71% 30.02 in 10.0 mi North 13.8 mph - N/A   Mostly Cloudy
3:53 AM 42.1 °F 37.7 °F 32.0 °F 67% 29.90 in 10.0 mi NNW 6.9 mph - N/A   Scattered Clouds
4:53 AM 37.0 °F 31.6 °F 27.0 °F 67% 29.93 in 10.0 mi NNW 6.9 mph - N/A   Clear
5:53 AM 37.9 °F 28.9 °F 18.0 °F 45% 29.97 in 10.0 mi NNW 16.1 mph - N/A   Clear
6:53 AM 35.1 °F 26.4 °F 16.0 °F 46% 30.02 in 10.0 mi North 12.7 mph - N/A   Clear
7:53 AM 34.0 °F 25.0 °F 16.0 °F 48% 30.05 in 10.0 mi NNW 12.7 mph - N/A   Clear
8:53 AM 36.0 °F 25.0 °F 9.0 °F 33% 30.08 in 10.0 mi North 20.7 mph 27.6 mph N/A   Clear
9:53 AM 39.0 °F 29.3 °F 3.9 °F 23% 30.08 in 10.0 mi North 19.6 mph - N/A   Clear
10:53 AM 43.0 °F 35.4 °F 1.9 °F 18% 30.07 in 10.0 mi North 16.1 mph - N/A   Clear
11:53 AM 46.0 °F 41.0 °F -0.9 °F 14% 30.08 in 10.0 mi North 10.4 mph 19.6 mph N/A   Clear
12:53 PM 50.0 °F - -4.0 °F 11% 30.02 in 10.0 mi North 15.0 mph 21.9 mph N/A   Clear
1:53 PM 50.0 °F - -9.0 °F 8% 30.05 in 10.0 mi NE 8.1 mph 18.4 mph N/A   Clear
2:53 PM 51.1 °F - -8.0 °F 9% 30.04 in 10.0 mi NE 8.1 mph 18.4 mph N/A   Clear
3:53 PM 50.0 °F - -5.1 °F 10% 30.07 in 10.0 mi ENE 5.8 mph - N/A   Clear
4:53 PM 48.9 °F - -6.0 °F 10% 30.10 in 10.0 mi NE 4.6 mph - N/A   Clear
5:53 PM 39.0 °F 34.0 °F -11.0 °F 12% 30.14 in 10.0 mi NNW 6.9 mph - N/A   Clear
6:53 PM 34.0 °F 29.8 °F -9.9 °F 15% 30.18 in 10.0 mi NNW 4.6 mph - N/A   Clear
7:53 PM 32.0 °F 28.7 °F -8.0 °F 18% 30.22 in 10.0 mi West 3.5 mph - N/A   Clear
8:53 PM 28.9 °F 25.2 °F -2.9 °F 25% 30.24 in 10.0 mi South 3.5 mph - N/A   Clear
9:53 PM 28.0 °F 24.2 °F -2.9 °F 26% 30.25 in 10.0 mi WSW 3.5 mph - N/A   Clear
10:53 PM 27.0 °F 23.0 °F -5.1 °F 25% 30.26 in 10.0 mi SW 3.5 mph - N/A   Clear
11:53 PM 25.0 °F 18.1 °F -2.0 °F 31% 30.26 in 10.0 mi South 5.8 mph - N/A   Clear